Weather reports worldwide

Advertisment
Boscombe Down, United Kingdom (3746): temperature & dewpoint: 13.08.2018 10:00:00 - 19.08.2018 10:00:00 (BST)Boscombe Down, United Kingdom (3746): wind speed: 13.08.2018 10:00:00 - 19.08.2018 10:00:00 (BST)Boscombe Down, United Kingdom (3746): wind direction: 13.08.2018 10:00:00 - 19.08.2018 10:00:00 (BST)Boscombe Down, United Kingdom (3746): reduced air pressure: 13.08.2018 10:00:00 - 19.08.2018 10:00:00 (BST)Boscombe Down, United Kingdom (3746): visibility: 13.08.2018 10:00:00 - 19.08.2018 10:00:00 (BST)Boscombe Down, United Kingdom (3746): precipitation: 13.08.2018 10:00:00 - 19.08.2018 10:00:00 (BST)
Date & Time tt [°C] td [°C] ff [km/h] ff [kn] dd ppp [hPa] vv [km] rr [mm]
19.08.2018 10:00:00 18,2 15,6 18 10 SW 1019,1 40 -
19.08.2018 09:00:00 17,2 15,4 24 13 SW 1018,8 10 0,0
19.08.2018 08:00:00 16,7 14,6 22 12 SSW 1019,0 12 0,0
19.08.2018 07:00:00 16,6 14,3 21 11 SW 1019,1 20 0,0
19.08.2018 06:00:00 16,2 14,1 22 12 SSW 1019,0 23 0,0
19.08.2018 05:00:00 16,2 14,0 18 10 SSW 1019,5 21 0,0
19.08.2018 04:00:00 16,0 14,1 15 8 SSW 1020,1 24 0,0
19.08.2018 03:00:00 15,7 14,2 21 11 SSW 1020,3 22 0,0
19.08.2018 02:00:00 16,4 14,8 21 11 SSW 1020,8 24 0,0
19.08.2018 01:00:00 16,9 15,3 16 9 SSW 1021,0 23 0,0
19.08.2018 00:00:00 17,0 15,5 15 8 SSW 1021,2 17 0,0
18.08.2018 23:00:00 17,1 14,9 15 8 SSW 1021,6 20 0,0
18.08.2018 22:00:00 17,6 14,6 15 8 SSW 1021,5 26 0,0
18.08.2018 21:00:00 17,9 14,4 15 8 SSW 1021,5 30 0,0
18.08.2018 20:00:00 18,7 14,9 13 7 SW 1021,2 30 0,0
18.08.2018 19:00:00 19,0 14,8 16 9 SW 1021,2 30 0,0
18.08.2018 18:00:00 19,5 14,5 15 8 WSW 1021,1 35 0,0
18.08.2018 17:00:00 20,0 14,1 18 10 WSW 1021,2 40 0,0
18.08.2018 16:00:00 20,0 13,3 21 11 WSW 1021,2 40 0,0
18.08.2018 15:00:00 20,4 12,8 16 9 WSW 1021,3 50 0,0
18.08.2018 14:00:00 19,9 13,3 16 9 WSW 1021,6 10 0,0
18.08.2018 13:00:00 18,6 12,8 22 12 WSW 1021,8 50 0,0
18.08.2018 12:00:00 18,2 13,8 21 11 WSW 1021,9 28 0,0
18.08.2018 11:00:00 17,7 13,8 21 11 WSW 1021,7 35 0,0
18.08.2018 10:00:00 18,1 13,0 21 11 SW 1021,7 10 0,0
18.08.2018 09:00:00 16,4 13,7 18 10 WSW 1021,5 20 0,0
18.08.2018 08:00:00 15,7 14,1 18 10 WSW 1021,3 20 0,0
18.08.2018 07:00:00 15,6 13,8 16 9 SW 1021,0 26 0,0
18.08.2018 06:00:00 15,3 13,9 15 8 SW 1020,7 12 0,0
18.08.2018 05:00:00 15,2 13,6 13 7 SW 1020,7 11 0,0
18.08.2018 04:00:00 15,4 13,0 15 8 SW 1020,8 30 0,0
18.08.2018 03:00:00 15,7 12,2 13 7 SW 1021,0 10 0,0
18.08.2018 02:00:00 15,6 11,9 13 7 SW 1021,0 30 0,0
18.08.2018 01:00:00 15,3 11,7 21 11 WSW 1021,6 10 0,0
18.08.2018 00:00:00 15,3 11,7 15 8 SW 1021,8 35 0,0
17.08.2018 23:00:00 15,5 11,5 13 7 SW 1021,9 35 0,0
17.08.2018 22:00:00 15,8 11,2 15 8 WSW 1021,5 30 0,0
17.08.2018 21:00:00 16,0 11,0 11 6 WSW 1021,4 30 0,0
17.08.2018 20:00:00 17,0 11,7 13 7 WNW 1021,2 35 0,0
17.08.2018 19:00:00 18,5 10,0 21 11 W 1020,5 35 0,0
17.08.2018 18:00:00 18,9 10,4 24 13 W 1020,6 40 0,0
17.08.2018 17:00:00 19,7 9,5 22 12 W 1020,1 40 0,0
17.08.2018 16:00:00 20,2 9,7 18 10 W 1020,2 10 0,0
17.08.2018 15:00:00 19,2 9,4 15 8 W 1020,8 35 0,0
17.08.2018 14:00:00 20,3 9,0 16 9 W 1020,9 10 0,0
17.08.2018 13:00:00 19,5 9,7 18 10 WSW 1020,9 10 0,0
17.08.2018 12:00:00 20,2 8,7 18 10 WSW 1020,8 10 0,0
17.08.2018 11:00:00 18,8 9,2 11 6 W 1021,1 10 0,0
17.08.2018 10:00:00 17,0 10,0 16 9 W 1020,8 10 0,0
17.08.2018 09:00:00 15,3 12,7 11 6 W 1020,6 10 0,0
17.08.2018 08:00:00 12,7 11,5 9 5 WSW 1020,1 10 0,0
17.08.2018 07:00:00 10,8 10,5 5 3 WSW 1019,7 10 0,0
17.08.2018 06:00:00 10,3 9,7 5 3 SW 1019,1 0,2 0,0
17.08.2018 05:00:00 9,4 9,3 5 3 SSW 1018,7 1,6 0,0
17.08.2018 04:00:00 10,7 9,9 8 4 WNW 1018,4 10 0,0
17.08.2018 03:00:00 11,0 10,1 9 5 W 1018,4 16 0,0
17.08.2018 02:00:00 11,3 10,3 9 5 W 1018,1 23 0,0
17.08.2018 01:00:00 11,2 10,0 9 5 W 1018,2 25 0,0
17.08.2018 00:00:00 11,4 10,0 4 2 SSE 1018,0 10 0,0
16.08.2018 23:00:00 12,3 10,0 8 4 WNW 1017,6 35 0,0
16.08.2018 22:00:00 13,3 10,0 8 4 NW 1017,0 45 0,0
16.08.2018 21:00:00 14,3 10,0 11 6 WNW 1016,3 45 0,0
16.08.2018 20:00:00 16,3 9,5 16 9 W 1015,6 50 0,0
16.08.2018 19:00:00 17,8 8,0 24 13 WNW 1015,0 50 0,0
16.08.2018 18:00:00 20,0 9,9 22 12 WNW 1014,7 10 0,0
16.08.2018 17:00:00 18,8 9,4 18 10 WSW 1014,3 30 0,0
16.08.2018 16:00:00 20,3 9,2 26 14 W 1014,1 10 0,0
16.08.2018 15:00:00 20,1 10,5 24 13 W 1013,9 10 0,0
16.08.2018 14:00:00 17,8 11,3 22 12 W 1013,9 10 0,0
16.08.2018 13:00:00 15,6 13,6 11 6 WSW 1014,2 20 0,0
16.08.2018 12:00:00 14,2 13,4 11 6 W 1013,8 10 0,2
16.08.2018 11:00:00 13,7 13,1 15 8 W 1013,7 10 3,8
16.08.2018 10:00:00 15,2 14,7 18 10 W 1013,6 8 1,6
16.08.2018 09:00:00 16,2 15,6 15 8 WSW 1012,9 10 0,0
16.08.2018 08:00:00 16,4 16,1 21 11 SSW 1012,6 4,5 0,4
16.08.2018 07:00:00 16,5 16,0 21 11 SSW 1012,8 4,8 1,6
16.08.2018 06:00:00 16,3 16,0 24 13 SSW 1012,8 2,8 0,2
16.08.2018 05:00:00 16,8 15,4 26 14 SSW 1012,9 9 0,0
16.08.2018 04:00:00 17,3 14,5 24 13 SW 1013,6 45 0,0
16.08.2018 03:00:00 17,0 15,0 26 14 SSW 1014,2 40 0,0
16.08.2018 02:00:00 17,0 14,8 28 15 SSW 1014,5 50 0,0
16.08.2018 01:00:00 17,2 15,0 22 12 SW 1015,3 40 0,0
16.08.2018 00:00:00 17,4 15,4 18 10 SSW 1015,6 30 0,0
15.08.2018 23:00:00 17,4 15,3 18 10 SSW 1016,0 35 0,0
15.08.2018 22:00:00 17,7 14,8 22 12 SSW 1016,4 35 0,0
15.08.2018 21:00:00 18,2 14,5 21 11 SSW 1016,3 50 0,0
15.08.2018 20:00:00 18,9 14,2 24 13 SW 1016,2 10 0,0
15.08.2018 19:00:00 19,8 14,1 28 15 SW 1016,2 45 0,0
15.08.2018 18:00:00 20,9 14,3 26 14 SW 1016,5 10 0,0
15.08.2018 17:00:00 20,6 13,7 26 14 SW 1017,2 40 0,0
15.08.2018 16:00:00 21,1 13,0 24 13 WSW 1017,4 10 0,0
15.08.2018 15:00:00 21,2 12,6 28 15 SW 1017,8 10 0,0
15.08.2018 14:00:00 21,2 13,9 28 15 SW 1018,2 10 0,0
15.08.2018 13:00:00 21,3 14,4 24 13 SW 1018,3 10 0,0
15.08.2018 12:00:00 21,2 14,3 21 11 SW 1018,5 10 0,0
15.08.2018 11:00:00 20,8 14,2 22 12 SW 1018,5 40 0,0
15.08.2018 10:00:00 20,6 14,3 24 13 WSW 1018,6 10 0,0
15.08.2018 09:00:00 18,3 14,0 22 12 WSW 1018,7 10 0,0
15.08.2018 08:00:00 17,1 13,6 16 9 SW 1018,8 10 0,0
15.08.2018 07:00:00 16,5 13,3 11 6 SW 1018,7 40 0,0
15.08.2018 06:00:00 16,2 13,4 11 6 SW 1018,5 10 0,0
15.08.2018 05:00:00 16,3 13,2 13 7 WSW 1018,6 30 0,0
15.08.2018 04:00:00 16,5 13,2 16 9 WSW 1018,8 30 0,0
15.08.2018 03:00:00 16,4 13,6 16 9 W 1018,8 10 0,0
15.08.2018 02:00:00 16,6 13,1 15 8 WSW 1019,0 45 0,0
15.08.2018 01:00:00 16,8 13,1 16 9 W 1019,1 10 0,0
15.08.2018 00:00:00 16,8 13,3 18 10 W 1019,3 25 0,0
14.08.2018 23:00:00 16,4 13,3 16 9 W 1019,1 35 0,0
14.08.2018 22:00:00 15,7 12,8 9 5 W 1019,2 40 0,0
14.08.2018 21:00:00 17,1 12,9 18 10 WNW 1018,9 40 0,0
14.08.2018 20:00:00 19,2 13,8 24 13 WNW 1018,2 50 0,0
14.08.2018 19:00:00 20,8 13,7 22 12 W 1017,6 35 0,0
14.08.2018 18:00:00 21,5 15,2 24 13 W 1017,7 10 0,0
14.08.2018 17:00:00 21,9 15,4 22 12 W 1017,6 10 0,0
14.08.2018 16:00:00 23,3 15,3 22 12 WNW 1017,6 10 0,0
14.08.2018 15:00:00 22,4 14,5 24 13 WNW 1017,5 10 0,0
14.08.2018 14:00:00 22,3 13,0 22 12 W 1017,3 10 0,0
14.08.2018 13:00:00 22,3 13,0 22 12 W 1017,2 10 0,0
14.08.2018 12:00:00 21,2 13,7 13 7 WSW 1017,3 10 0,0
14.08.2018 11:00:00 19,6 13,7 15 8 W 1017,2 10 0,0
14.08.2018 10:00:00 18,2 13,3 13 7 WSW 1017,0 10 0,0
14.08.2018 09:00:00 16,7 13,8 11 6 W 1016,8 10 0,0
14.08.2018 08:00:00 16,5 14,5 8 4 W 1016,4 10 0,0
14.08.2018 07:00:00 14,6 13,8 8 4 WSW 1016,2 10 0,0
14.08.2018 06:00:00 13,5 12,8 5 3 SSW 1015,7 13 0,0
14.08.2018 05:00:00 13,0 12,2 4 2 SSW 1015,4 19 0,0
14.08.2018 04:00:00 12,2 11,6 4 2 NW 1015,1 50 0,0
14.08.2018 03:00:00 12,5 11,6 5 3 WNW 1014,8 45 0,0
14.08.2018 02:00:00 13,1 11,7 9 5 WNW 1014,6 45 0,0
14.08.2018 01:00:00 13,7 11,8 11 6 WNW 1014,0 50 0,0
14.08.2018 00:00:00 14,8 12,2 15 8 WNW 1013,3 50 0,0
13.08.2018 23:00:00 15,8 13,5 11 6 WNW 1012,9 50 0,0
13.08.2018 22:00:00 17,3 13,3 11 6 WNW 1012,2 50 0,0
13.08.2018 21:00:00 18,9 13,1 22 12 NW 1011,5 10 0,0
13.08.2018 20:00:00 19,8 13,9 24 13 WNW 1010,6 50 0,0
13.08.2018 19:00:00 21,2 15,0 28 15 WNW 1009,5 10 0,0
13.08.2018 18:00:00 22,0 15,1 21 11 W 1009,0 10 0,0
13.08.2018 17:00:00 22,8 13,8 18 10 WNW 1008,6 10 0,0
13.08.2018 16:00:00 21,7 13,7 16 9 NW 1008,3 10 0,0
13.08.2018 15:00:00 22,0 14,3 18 10 W 1008,3 10 0,0
13.08.2018 14:00:00 20,7 13,9 18 10 W 1008,3 45 0,0
13.08.2018 13:00:00 21,8 13,4 21 11 WNW 1008,0 10 0,0
13.08.2018 12:00:00 20,0 13,4 15 8 W 1008,1 40 0,0
13.08.2018 11:00:00 18,6 15,0 15 8 WNW 1007,9 10 0,0
13.08.2018 10:00:00 18,2 16,9 15 8 WNW 1007,4 10 0,0

tt = temperature
td = dewpoint
ff = wind speed
dd = wind direction
ppp = reduced air pressure
vv = visibility
rr = precipitation

Next stations